Location: Church Tower
(37.7144°N, 119.6316°W)
Time: 19:26:53
(UTC+00:00)

Cosmos 1674 Rocket - Pass Details

Date: 15 November 2025
Orbit: 595 x 623 km, 82.5° (Epoch: 08 December)

Event Time Altitude Azimuth Distance (km) Brightness Sun altitude
Rises 13:44:58 0° 198° (SSW) 2,888 7.0 -10.9°
Reaches altitude 10° 13:47:14 10° 203° (SSW) 1,987 6.1 -10.5°
Maximum altitude 13:51:32 51° 279° (W) 783 3.7 -9.7°
Drops below altitude 10° 13:55:51 10° 357° (N) 1,998 6.0 -8.9°
Sets 13:58:09 0° 2° (N) 2,906 6.8 -8.4°
